Find OneWeb SL0148

NORAD ID: 48059 Int'l Des: 2021-025 Owner: ONEWEBN Country: UK Constellation: oneweb operational
LEOCIRCULARPOLARONEWEB_TYPE

現在のビュー

3D地球を読み込み中...

About OneWeb SL0148

OneWeb SL0148 (NORAD 48059) is a oneweb constellation satellite launched Mar 25, 2021 by ONEWEBN of UK. It operates in LEO, CIRCULAR, POLAR, ONEWEB_TYPE orbit with a mass of 148.00 kg.

OneWeb SL0148について

説明を読み込み中...

次回通過

Passes for default location (London). Set your location on the main map for personalized predictions.

高度履歴

Loading altitude history...

軌道要素

1 48059U 21025T 26170.33069639 .00000343 00000-0 90349-3 0 9999
2 48059 87.8956 319.8032 0002412 92.0549 268.0856 13.13470232253893
Epoch: Jun 19, 2026 • Age: 15 hours

現在のステータス

高度 1221.3 km
速度 7.25 km/s
衛星直下点 79.05°N, 125.5°W
打ち上げ日 Mar 25, 2021
運用期間 5.2 years
タイプ internet

技術仕様

分類 Payload
質量 148.00 kg
乾燥質量 140.00 kg
総質量 148.00 kg
長さ 1.30 m
直径 1.00 m
スパン 5.00 m
形状 Trapezoid+2 pan
製造者 ONEWUS
バスタイプ ARROW
フェーズステータス In Orbit
所有者/国 ONEWEBN/UK

Most Searched